• In Moldova, Republic
  • List of Countries
  • For 7 days
  • Water Temperature
  • Satellite Maps
  • Weather Map
  • Weather Widgets
  • user-avatar
    Login

    Hourly Weather Lineya

    Today, 25 September, Tuesday

    Time Temperature Precipitation Wind Pressure Humidity
    00:00 +4°C° 1.1 mm 6 mps 723 mmHg 92%
    01:00 +4°C° 1.1 mm 7 mps 724 mmHg 92%
    02:00 +6°C° 0 mm 5 mps 724 mmHg 91%
    03:00 +5°C° 0.3 mm 5 mps 725 mmHg 91%
    04:00 +4°C° 0.3 mm 6 mps 726 mmHg 90%
    05:00 +4°C° 0.3 mm 7 mps 727 mmHg 89%
    06:00 +4°C° 0.1 mm 6 mps 728 mmHg 88%
    07:00 +4°C° 0.1 mm 6 mps 729 mmHg 87%
    08:00 +4°C° 0 mm 6 mps 729 mmHg 86%
    09:00 +4°C° 0 mm 6 mps 730 mmHg 84%
    10:00 +4°C° 0 mm 6 mps 731 mmHg 83%
    11:00 +4°C° 0 mm 6 mps 732 mmHg 81%
    12:00 +5°C° 0 mm 6 mps 733 mmHg 77%
    13:00 +5°C° 0 mm 6 mps 734 mmHg 73%
    14:00 +7°C° 0 mm 5 mps 734 mmHg 70%
    15:00 +7°C° 0 mm 5 mps 735 mmHg 71%
    16:00 +6°C° 0 mm 4 mps 736 mmHg 72%
    17:00 +6°C° 0 mm 4 mps 736 mmHg 73%
    18:00 +5°C° 0 mm 4 mps 737 mmHg 76%
    19:00 +4°C° 0 mm 4 mps 738 mmHg 79%
    20:00 +4°C° 0 mm 4 mps 738 mmHg 82%
    21:00 +3°C° 0 mm 3 mps 739 mmHg 83%
    22:00 +3°C° 0 mm 3 mps 740 mmHg 83%
    23:00 +2°C° 0 mm 3 mps 740 mmHg 83%

    Tomorrow, 26 September, Wednesday

    Time Temperature Precipitation Wind Pressure Humidity
    00:00 +2°C° 0 mm 3 mps 741 mmHg 84%
    01:00 +1°C° 0 mm 3 mps 741 mmHg 84%
    02:00 +1°C° 0 mm 3 mps 742 mmHg 84%
    03:00 +1°C° 0 mm 3 mps 742 mmHg 86%
    04:00 +1°C° 0 mm 3 mps 742 mmHg 88%
    05:00 0°C° 0 mm 3 mps 743 mmHg 90%
    06:00 +1°C° 0 mm 3 mps 743 mmHg 86%
    07:00 +2°C° 0 mm 3 mps 743 mmHg 83%
    08:00 +3°C° 0 mm 3 mps 744 mmHg 80%
    09:00 +5°C° 0 mm 4 mps 743 mmHg 74%
    10:00 +6°C° 0 mm 4 mps 743 mmHg 67%
    11:00 +8°C° 0 mm 4 mps 743 mmHg 61%
    12:00 +10°C° 0 mm 4 mps 743 mmHg 59%
    13:00 +9°C° 0 mm 5 mps 742 mmHg 57%
    14:00 +10°C° 0 mm 5 mps 742 mmHg 54%
    15:00 +9°C° 0 mm 5 mps 741 mmHg 58%
    16:00 +8°C° 0 mm 5 mps 740 mmHg 62%
    17:00 +8°C° 0 mm 5 mps 739 mmHg 66%
    18:00 +7°C° 0.4 mm 6 mps 738 mmHg 72%
    19:00 +5°C° 0.4 mm 7 mps 737 mmHg 77%
    20:00 +5°C° 0.4 mm 7 mps 736 mmHg 83%
    21:00 +4°C° 1.1 mm 8 mps 735 mmHg 85%
    22:00 +4°C° 1.1 mm 8 mps 734 mmHg 87%
    23:00 +4°C° 1.1 mm 8 mps 732 mmHg 88%

    Day after tomorrow, 27 September, Thursday

    Time Temperature Precipitation Wind Pressure Humidity
    00:00 +4°C° 0.6 mm 8 mps 731 mmHg 89%
    01:00 +5°C° 0.6 mm 8 mps 730 mmHg 89%
    02:00 +5°C° 0.6 mm 8 mps 729 mmHg 89%
    03:00 +5°C° 1.1 mm 7 mps 729 mmHg 90%
    04:00 +5°C° 1.1 mm 7 mps 729 mmHg 91%
    05:00 +7°C° 1.1 mm 6 mps 728 mmHg 92%
    06:00 +7°C° 0.3 mm 6 mps 729 mmHg 89%
    07:00 +7°C° 0.3 mm 6 mps 729 mmHg 87%
    08:00 +7°C° 0.3 mm 5 mps 729 mmHg 85%
    09:00 +8°C° 0.1 mm 6 mps 730 mmHg 78%
    10:00 +8°C° 0.1 mm 6 mps 730 mmHg 71%
    11:00 +9°C° 0.1 mm 7 mps 730 mmHg 65%
    12:00 +9°C° 0.2 mm 7 mps 731 mmHg 64%
    13:00 +9°C° 0.2 mm 7 mps 731 mmHg 63%
    14:00 +9°C° 0.2 mm 7 mps 731 mmHg 62%
    15:00 +9°C° 0.1 mm 6 mps 731 mmHg 65%
    16:00 +8°C° 0.1 mm 5 mps 732 mmHg 68%
    17:00 +7°C° 0.1 mm 4 mps 732 mmHg 70%
    18:00 +7°C° 0 mm 4 mps 732 mmHg 71%
    19:00 +6°C° 0 mm 4 mps 733 mmHg 72%
    20:00 +6°C° 0 mm 4 mps 733 mmHg 73%
    21:00 +5°C° 0 mm 4 mps 733 mmHg 74%
    22:00 +5°C° 0 mm 3 mps 733 mmHg 76%
    23:00 +5°C° 0 mm 3 mps 733 mmHg 77%

    28 September, Friday

    Time Temperature Precipitation Wind Pressure Humidity
    00:00 +5°C° 0 mm 4 mps 732 mmHg 78%
    01:00 +6°C° 0 mm 4 mps 731 mmHg 79%
    02:00 +6°C° 0 mm 4 mps 730 mmHg 80%
    03:00 +7°C° 0.5 mm 5 mps 729 mmHg 82%
    04:00 +9°C° 0.5 mm 7 mps 727 mmHg 85%
    05:00 +10°C° 0.5 mm 8 mps 726 mmHg 88%
    06:00 +11°C° 1.4 mm 8 mps 725 mmHg 88%
    07:00 +11°C° 1.4 mm 8 mps 725 mmHg 87%
    08:00 +11°C° 1.4 mm 8 mps 724 mmHg 87%
    09:00 +11°C° 1 mm 8 mps 725 mmHg 86%
    10:00 +10°C° 1 mm 7 mps 726 mmHg 86%
    11:00 +9°C° 1 mm 6 mps 727 mmHg 85%
    12:00 +8°C° 0.1 mm 6 mps 728 mmHg 82%
    13:00 +8°C° 0.1 mm 5 mps 729 mmHg 80%
    14:00 +7°C° 0.1 mm 5 mps 730 mmHg 77%
    15:00 +6°C° 0 mm 4 mps 731 mmHg 79%
    16:00 +7°C° 0 mm 3 mps 732 mmHg 80%
    17:00 +6°C° 0 mm 2 mps 733 mmHg 81%
    18:00 +6°C° 0 mm 2 mps 733 mmHg 85%
    19:00 +5°C° 0 mm 2 mps 734 mmHg 89%
    20:00 +4°C° 0 mm 2 mps 735 mmHg 93%
    21:00 +4°C° 0 mm 2 mps 735 mmHg 94%
    22:00 +4°C° 0 mm 2 mps 736 mmHg 95%
    23:00 +3°C° 0 mm 2 mps 736 mmHg 96%

    29 September, Saturday

    Time Temperature Precipitation Wind Pressure Humidity
    00:00 +3°C° 0 mm 2 mps 737 mmHg 96%
    01:00 +3°C° 0 mm 2 mps 737 mmHg 96%
    02:00 +2°C° 0 mm 2 mps 738 mmHg 96%
    03:00 +2°C° 0 mm 2 mps 738 mmHg 95%
    04:00 +1°C° 0 mm 2 mps 739 mmHg 95%
    05:00 +2°C° 0 mm 1 mps 739 mmHg 94%
    06:00 +2°C° 0 mm 2 mps 740 mmHg 88%
    07:00 +3°C° 0 mm 2 mps 740 mmHg 82%
    08:00 +3°C° 0 mm 2 mps 741 mmHg 76%
    09:00 +5°C° 0 mm 2 mps 742 mmHg 69%
    10:00 +5°C° 0 mm 3 mps 742 mmHg 62%
    11:00 +7°C° 0 mm 3 mps 743 mmHg 55%
    12:00 +7°C° 0 mm 3 mps 743 mmHg 53%
    13:00 +7°C° 0 mm 3 mps 743 mmHg 52%
    14:00 +7°C° 0 mm 3 mps 743 mmHg 50%
    15:00 +5°C° 0 mm 3 mps 744 mmHg 55%
    16:00 +5°C° 0 mm 2 mps 744 mmHg 60%
    17:00 +4°C° 0 mm 2 mps 744 mmHg 65%
    18:00 +4°C° 0 mm 1 mps 744 mmHg 69%
    19:00 +3°C° 0 mm 1 mps 745 mmHg 72%
    20:00 +2°C° 0 mm 1 mps 745 mmHg 76%
    21:00 +2°C° 0 mm 1 mps 746 mmHg 77%
    22:00 +2°C° 0 mm 1 mps 746 mmHg 78%
    23:00 +1°C° 0 mm 1 mps 746 mmHg 79%

    30 September, Sunday

    Time Temperature Precipitation Wind Pressure Humidity
    00:00 +1°C° 0 mm 1 mps 746 mmHg 80%
    01:00 -1°C° 0 mm 2 mps 746 mmHg 81%
    02:00 -1°C° 0 mm 2 mps 746 mmHg 82%
    03:00 -1°C° 0 mm 2 mps 746 mmHg 83%
    04:00 -1°C° 0 mm 2 mps 746 mmHg 83%
    05:00 -1°C° 0 mm 2 mps 746 mmHg 83%
    06:00 0°C° 0 mm 3 mps 746 mmHg 78%
    07:00 +1°C° 0 mm 3 mps 746 mmHg 72%
    08:00 +1°C° 0 mm 4 mps 746 mmHg 67%
    09:00 +4°C° 0 mm 4 mps 746 mmHg 61%
    10:00 +6°C° 0 mm 4 mps 746 mmHg 55%
    11:00 +7°C° 0 mm 5 mps 746 mmHg 50%
    12:00 +8°C° 0 mm 5 mps 745 mmHg 48%
    13:00 +8°C° 0 mm 5 mps 745 mmHg 47%
    14:00 +8°C° 0 mm 5 mps 744 mmHg 46%
    15:00 +7°C° 0 mm 4 mps 744 mmHg 51%
    16:00 +6°C° 0 mm 4 mps 744 mmHg 56%
    17:00 +5°C° 0 mm 3 mps 743 mmHg 61%
    18:00 +5°C° 0 mm 3 mps 743 mmHg 63%
    19:00 +4°C° 0 mm 3 mps 743 mmHg 66%
    20:00 +4°C° 0 mm 4 mps 743 mmHg 68%
    21:00 +3°C° 0 mm 4 mps 743 mmHg 69%
    22:00 +3°C° 0 mm 4 mps 743 mmHg 71%
    23:00 +3°C° 0 mm 4 mps 743 mmHg 73%
    Show more